This is the latest recevied weather packets stored in our database for station/object N0HOT. If no packets are shown the sender has not sent any weather packets the latest 10 day(s).
| Time | Temp. | Humidity | Pressure | Rain* | Wind** | Luminosity | Snow |
|---|---|---|---|---|---|---|---|
| 1777649309 | 10.56° C | 37% | 1018.8 hPa | 0 mm | - | 721 W/m² | - |
| 1777649006 | 10.56° C | 36% | 1018.8 hPa | 0 mm | - | 688 W/m² | - |
| 1777648704 | 10° C | 36% | 1018.8 hPa | 0 mm | - | 675 W/m² | - |
| 1777648400 | 10° C | 36% | 1018.5 hPa | 0 mm | - | 694 W/m² | - |
| 1777648096 | 10° C | 37% | 1018.8 hPa | 0 mm | - | 653 W/m² | - |
| 1777647793 | 10° C | 40% | 1018.8 hPa | 0 mm | - | 647 W/m² | - |
| 1777647489 | 10° C | 37% | 1018.8 hPa | 0 mm | - | 645 W/m² | - |
| 1777647186 | 10° C | 37% | 1018.8 hPa | 0 mm | - | 577 W/m² | - |
| 1777646883 | 10° C | 39% | 1019.1 hPa | 0 mm | - | 258 W/m² | - |
| 1777646579 | 9.44° C | 39% | 1019.1 hPa | 0 mm | - | 586 W/m² | - |
| 1777646275 | 8.89° C | 41% | 1019.1 hPa | 0 mm | - | 524 W/m² | - |
| 1777645972 | 8.33° C | 42% | 1019.1 hPa | 0 mm | - | 366 W/m² | - |
| 1777645669 | 7.78° C | 41% | 1019.1 hPa | 0 mm | - | 482 W/m² | - |
| 1777645365 | 7.78° C | 46% | 1019.5 hPa | 0 mm | - | 524 W/m² | - |
| 1777645061 | 7.22° C | 47% | 1019.1 hPa | 0 mm | - | 490 W/m² | - |
| 1777644758 | 6.67° C | 51% | 1019.5 hPa | 0 mm | - | 329 W/m² | - |
| 1777644455 | 6.67° C | 50% | 1019.5 hPa | 0 mm | - | 108 W/m² | - |
| 1777644152 | 6.11° C | 54% | 1019.5 hPa | 0 mm | - | 186 W/m² | - |
| 1777643848 | 5.56° C | 57% | 1019.8 hPa | 0 mm | - | 92 W/m² | - |
| 1777643546 | 5.56° C | 58% | 1019.5 hPa | 0 mm | - | 159 W/m² | - |
| 1777643242 | 5° C | 58% | 1019.8 hPa | 0 mm | - | 93 W/m² | - |
| 1777642939 | 5° C | 58% | 1020.1 hPa | 0 mm | - | 189 W/m² | - |
| 1777642635 | 4.44° C | 59% | 1019.8 hPa | 0 mm | - | 88 W/m² | - |
| 1777642332 | 3.89° C | 60% | 1019.8 hPa | 0 mm | - | 147 W/m² | - |
| 1777642029 | 3.33° C | 61% | 1020.1 hPa | 0 mm | - | 231 W/m² | - |
* Rain latest hour (hover to see other rain measurements)
** Current wind speed in m/s (hover to see current wind gust speed)